This is the latest recevied weather packets stored in our database for station/object HF3P-11. If no packets are shown the sender has not sent any weather packets the latest 10 day(s).
| Time | Temp. | Humidity | Pressure | Rain* | Wind** | Luminosity | Snow |
|---|---|---|---|---|---|---|---|
| 1788010792 | 21.67° C | 77% | 1005.8 hPa | 0 mm | - | - | - |
| 1788010501 | 21.67° C | 78% | 1005.7 hPa | 0 mm | - | - | - |
| 1788010192 | 21.67° C | 80% | 1005.7 hPa | 0 mm | - | - | - |
| 1788009901 | 21.11° C | 81% | 1005.5 hPa | 0 mm | - | - | - |
| 1788009601 | 21.11° C | 80% | 1005.5 hPa | 0 mm | - | - | - |
| 1788009291 | 21.11° C | 79% | 1005.5 hPa | 0 mm | - | - | - |
| 1788009001 | 21.11° C | 79% | 1005.6 hPa | 0 mm | - | - | - |
| 1788008692 | 21.67° C | 77% | 1005.6 hPa | 0 mm | - | - | - |
| 1788008393 | 21.67° C | 77% | 1005.7 hPa | 0 mm | - | - | - |
| 1788008092 | 22.22° C | 76% | 1005.6 hPa | 0 mm | - | - | - |
| 1788007801 | 22.22° C | 76% | 1005.4 hPa | 0 mm | - | - | - |
| 1788007492 | 22.78° C | 77% | 1005.4 hPa | 0 mm | - | - | - |
| 1788007201 | 22.22° C | 80% | 1005.3 hPa | 0 mm | - | - | - |
| 1788006892 | 22.22° C | 80% | 1005.2 hPa | 0 mm | - | - | - |
| 1788006601 | 22.22° C | 80% | 1005.3 hPa | 0 mm | - | - | - |
| 1788006292 | 21.67° C | 81% | 1005.3 hPa | 0 mm | - | - | - |
| 1788005992 | 21.67° C | 80% | 1005.4 hPa | 0 mm | - | - | - |
| 1788005691 | 21.67° C | 80% | 1005.4 hPa | 0 mm | - | - | - |
| 1788005400 | 22.22° C | 81% | 1005.4 hPa | 0 mm | - | - | - |
| 1788005092 | 21.67° C | 84% | 1005.4 hPa | 0 mm | - | - | - |
| 1788004802 | 21.67° C | 84% | 1005.4 hPa | 0 mm | - | - | - |
| 1788004492 | 21.67° C | 85% | 1005.4 hPa | 0 mm | - | - | - |
| 1788004200 | 21.67° C | 86% | 1005.3 hPa | 0 mm | - | - | - |
| 1788003901 | 21.67° C | 89% | 1005.4 hPa | 0 mm | - | - | - |
| 1788003591 | 21.11° C | 91% | 1005.3 hPa | 0 mm | - | - | - |
* Rain latest hour (hover to see other rain measurements)
** Current wind speed in m/s (hover to see current wind gust speed)